Weather in Albituy

Russia / Zabaykalsky Krai     50°08′19″N   108°13′51″E
temp.,
°C
wind,
m/s
gust,
m/s
humid.,
%
clouds,
%
prec.,
mm/h
press.,
hPa
HPBL,
m
17 may, mon
mon1700:00+6n11786 0.0 101111
03:00+5nw01858 0.0 100910
06:00+4sw1188100 0.0 100717
09:00+12wsw2647100 0.0 1004537
12:00+16nnw564199 0.0 10031979
15:00+10nw3667100 0.5 1006792
18:00+14n244961 0.0 10041363
21:00+9nnw376192 0.0 1006427
18 may, tue
tue1800:00+4nnw2280100 0.0 100944
03:00+4nw2181100 0.0 101026
06:00+2nnw1193100 0.0 101113
09:00+5nnw0278100 0.6 1011639
12:00+6wsw1277100 0.8 1011693
15:00+10sw145393 1.1 10081291
18:00+12wnw353630 0.0 10061990
21:00+7wnw115880 0.0 100611
19 may, wed
wed1900:00+3wsw117638 0.0 100810
03:00+2ssw1188100 0.0 100519
06:00+2s1184100 0.0 100238
09:00+8ssw2862100 0.0 997390
12:00+16w4740100 0.0 9941291
15:00+17nnw673998 0.0 9962180
18:00+13nnw355213 0.0 10001194
21:00+8n21682 0.0 100115
20 may, thu
thu2000:00+4e11856 0.0 100210
03:00+3ese1192100 0.0 100018
06:00+3sse1196100 0.0 99825
09:00+9ne1272100 0.0 995137
12:00+18e044282 0.0 9941457
15:00+21ene243671 0.0 9921859
18:00+21ene333618 0.0 9891283
21:00+13nne237424 0.5 98950
21 may, fri
fri2100:00+9nw2496100 5.8 990104
03:00+7n239842 5.9 98976
06:00+6nnw2496100 0.1 988319
09:00+3wnw2393100 0.6 992482
12:000w3994100 2.1 997771
15:00+1wnw71280100 3.6 9981027
18:00+1wnw71375100 0.6 10001160
21:00−1wnw71486100 1.6 10031191